DMSP 5D-2 F13 DEB

基本信息
目录编号:
42293
目录名称:
DMSP 5D-2 F13 DEB
国际标识:
1995-015HK
轨道中心:
EARTH
物体状态:
已陨落(2025-09-07)
发射日期:
1995-03-24 UTC
轨道信息
数据来源: 国际轨道数据
星历时间: 2025-08-27T03:24:50+0800
半长轴: 6829.585km
偏心率: 0.0020891
轨道倾角: 98.689°
近地点辐角: 264.161°
升交点赤经: 338.820°
平近点角: 95.725°
近地点: 437.182km
远地点: 465.718km
周期: 93.616分钟
每日圈数: 15.381949
详细信息
发射场:
AFWTR
轨道高度:
LEO
数据来源:
AOE Integration Group
参考系:
TEME
时间系统:
UTC
历元类型:
SGP4
2D轨道图
3D轨道图
轨道高度分析图
轨道倾角分析图
轨道综合分析图
查看轨道综合分析图